Tracking 18942 objects as of 16-Jan-2018
HD Live streaming from Space Station
objects crossing your sky now

FENGYUN 1C DEB

Track FENGYUN 1C DEB now!
10-day predictions


NORAD ID: 31816
Int'l Code: 1999-025CHE
Perigee: 849.9 km
Apogee: 1,040.6 km
Inclination: 98.8 °
Period: 103.8 minutes
Semi major axis: 7316 km
RCS: 0.0124 m2 (small)
Launch date: May 10, 1999
Source: People's Republic of China (PRC)
Launch site: Taiyaun Space Center, China (TSC)

Note: This is SATELLITE DEBRIS
aabbcc
Your satellite tracking list
Your tracking list is empty




NASA's NSSDC Master Catalog

Two Line Element Set (TLE):
1 31816U 99025CHE 18015.55010972 +.00000357 +00000-0 +31535-3 0  9993
2 31816 098.8346 225.4928 0130320 102.5267 286.6630 13.87291896537430
Source of the keplerian elements: AFSPC